カタログに戻る

STARLINK-36606

運用中通信VLEO
NORAD 67845·PAYLOAD·🇺🇸 United States

打ち上げ Feb 16, 2026 から Vandenberg Space Force Base

Loading…

次のパス (今後24時間)

TLE

最新Source: CelesTrak SupGP

元期: Sep 14, 2026, 22:28 UTC

1 67845C 26033AA  26257.93659722  .00026811  00000+0  97113-3 0  2577
2 67845  43.0000 278.0288 0001286 266.4656 312.0443 15.27563460    13

AllMySatでSTARLINK-36606をリアルタイム追跡

Download on the App Store